Starlink 5607

operational
NORAD ID: 55404 Int'l Des: 2023-014 Owner: SPXS Country: US Constellation: starlink
LEOCIRCULAR

Starlink 5607について

説明を読み込み中...

リアルタイム位置

3D地球を読み込み中...

次回通過

高度履歴

Altitude vs Time

uPlot chart will show altitude changes over time

軌道要素

1 55404U 23014P 25347.97690269 .00002269 00000-0 19792-3 0 9997
2 55404 69.9991 280.6787 0003145 266.8252 93.2547 14.98321727159217
Epoch: Dec 13, 2025 • Age: 15 hours

現在のステータス

高度 584.5 km
速度 7.57 km/s
衛星直下点 63.57°N, 29.56°E
打ち上げ日 Jan 31, 2023
運用期間 2.8 years
タイプ internet

技術仕様

分類 Payload
質量 305.00 kg
乾燥質量 290.00 kg
総質量 305.00 kg
長さ 0.20 m
直径 2.80 m
スパン 9.00 m
形状 Box + pan
製造者 SPXS
バスタイプ Starlink
フェーズステータス In Orbit
所有者/国 SPXS/US

大規模コンステレーション

Loading constellations...